Kulusuk Lufthavn, Greenland

5:07 PM WGT on December 09, 2016 (GMT -0300)
Kulusuk

Weather History for BGKK - October, 2013

Change the Weather History Date:

Wednesday, October 23, 2013

  Actual Average Record
Temperature  
Mean Temperature 25 °F -  
Max Temperature 29 °F 28 °F 41 °F (2003)
Min Temperature 21 °F 25 °F 19 °F (2015)
Degree Days  
Heating Degree Days 40    
Moisture  
Dew Point 10 °F    
Average Humidity 51    
Maximum Humidity 63    
Minimum Humidity 25    
Precipitation  
Precipitation 0.00 in - - ()
Sea Level Pressure  
Sea Level Pressure 29.69 in    
Wind  
Wind Speed 5 mph ()    
Max Wind Speed 9 mph    
Max Gust Speed -    
Visibility 6.2 miles    
Events      
Averages and records for this station are not official NWS values.
T = Trace of Precipitation, MM = Missing Value Source: Averaged Metar Reports

Daily Weather History Graph

Daily Weather History Graph

Search for Another Location

Airport or City:

Trip Planner

Search our weather history database for the weather conditions in past years. The results will help you decide how hot, cold, wet, or windy it might be!

Date:

Astronomy

Oct. 23, 2013 Rise Set
Actual Time 7:50 AM WGST 4:33 PM WGST
Civil Twilight 6:56 AM WGST 5:27 PM WGST
Nautical Twilight 5:57 AM WGST 6:26 PM WGST
Astronomical Twilight 4:59 AM WGST 7:24 PM WGST
Moon 6:42 PM WGST (10/23) 1:16 PM WGST (10/23)
Length of Visible Light 10h 30m
Length of Day
8h 43m
Waning Gibbous, 80% of the Moon is Illuminated
Oct 23
Waning Gibbous
Oct 26
Last Quarter
Nov 3
New
Nov 10
First Quarter
Nov 17
Full

Hourly Weather History & Observations

Time (WGST) Temp. Windchill Dew Point Humidity Pressure Visibility Wind Dir Wind Speed Gust Speed Precip Events Conditions
12:20 AM 26.6 °F 18.2 °F 14.0 °F 59% 29.71 in 6.2 mi NW 8.1 mph - N/A   Partly Cloudy
12:50 AM 26.6 °F 17.5 °F 14.0 °F 59% 29.71 in 6.2 mi NNW 9.2 mph - N/A   Partly Cloudy
1:00 AM 26 °F - 12 °F 42% 29.74 in 22 mi NNW 9.2 mph - -   Partly Cloudy
1:20 AM 26.6 °F 19.1 °F 12.2 °F 55% 29.71 in 6.2 mi NNW 6.9 mph - N/A   Mostly Cloudy
1:50 AM 26.6 °F 21.2 °F 12.2 °F 55% 29.71 in 6.2 mi WNW 4.6 mph - N/A   Partly Cloudy
2:20 AM 26.6 °F 19.1 °F 12.2 °F 55% 29.71 in 6.2 mi NNW 6.9 mph - N/A   Partly Cloudy
2:50 AM 26.6 °F - 10.4 °F 51% 29.71 in 6.2 mi Variable 1.2 mph - N/A   Unknown
3:20 AM 24.8 °F 20.5 °F 12.2 °F 59% 29.71 in 6.2 mi Variable 3.5 mph - N/A   Mostly Cloudy
3:50 AM 26.6 °F 21.2 °F 10.4 °F 51% 29.71 in 6.2 mi NNW 4.6 mph - N/A   Unknown
4:00 AM 26 °F - 8 °F 32% 29.72 in 22 mi WNW 3.5 mph - -  
4:20 AM 24.8 °F - 10.4 °F 54% 29.68 in 6.2 mi SSW 2.3 mph - N/A   Unknown
4:50 AM 24.8 °F 19.1 °F 10.4 °F 54% 29.68 in 6.2 mi WSW 4.6 mph - N/A   Unknown
5:20 AM 23.0 °F 14.7 °F 10.4 °F 59% 29.68 in 6.2 mi SW 6.9 mph - N/A   Unknown
5:50 AM 23.0 °F 15.8 °F 10.4 °F 59% 29.68 in 6.2 mi West 5.8 mph - N/A   Unknown
6:20 AM 24.8 °F 19.1 °F 10.4 °F 54% 29.68 in 6.2 mi WSW 4.6 mph - N/A   Unknown
6:50 AM 23.0 °F 18.4 °F 10.4 °F 59% 29.68 in 6.2 mi WSW 3.5 mph - N/A   Unknown
7:00 AM 22 °F - 8 °F 41% 29.71 in 22 mi WSW 3.5 mph - -  
7:20 AM 24.8 °F 19.1 °F 10.4 °F 54% 29.68 in 6.2 mi WSW 4.6 mph - N/A   Unknown
7:50 AM 24.8 °F 19.1 °F 10.4 °F 54% 29.68 in 6.2 mi West 4.6 mph - N/A   Clear
8:50 AM 23.0 °F 17.0 °F 10.4 °F 59% 29.65 in 6.2 mi SW 4.6 mph - N/A   Clear
9:50 AM 21.2 °F 16.4 °F 10.4 °F 63% 29.65 in 6.2 mi SW 3.5 mph - N/A   Clear
10:00 AM 23 °F - 8 °F 39% 29.68 in 22 mi WSW 4.6 mph - -  
10:50 AM 26.6 °F 21.2 °F 10.4 °F 51% 29.65 in 6.2 mi Variable 4.6 mph - N/A   Clear
11:50 AM 26.6 °F 19.1 °F 10.4 °F 51% 29.65 in 6.2 mi SW 6.9 mph - N/A   Clear
12:50 PM 28.4 °F 23.3 °F 10.4 °F 47% 29.65 in 6.2 mi WSW 4.6 mph - N/A   Clear
1:00 PM 27 °F - 8 °F 30% 29.67 in 22 mi SW 4.6 mph - -  
1:50 PM 26.6 °F 21.2 °F 10.4 °F 51% 29.65 in 6.2 mi SW 4.6 mph - N/A   Clear
2:50 PM 28.4 °F - 10.4 °F 47% 29.65 in 6.2 mi SW 2.3 mph - N/A   Clear
3:50 PM 26.6 °F 22.6 °F 10.4 °F 51% 29.65 in 6.2 mi South 3.5 mph - N/A   Clear
4:00 PM 26 °F - 7 °F 29% 29.68 in 22 mi South 3.5 mph - -  
4:50 PM 26.6 °F - 10.4 °F 51% 29.65 in 6.2 mi SW 2.3 mph - N/A   Clear
5:50 PM 26.6 °F 22.6 °F 6.8 °F 43% 29.68 in 6.2 mi SSW 3.5 mph - N/A   Unknown
6:20 PM 24.8 °F 17.9 °F 10.4 °F 54% 29.68 in 6.2 mi South 5.8 mph - N/A   Unknown
6:50 PM 26.6 °F - 8.6 °F 47% 29.68 in 6.2 mi South 2.3 mph - N/A   Clear
7:00 PM 26 °F - 5 °F 25% 29.72 in 22 mi SE 3.5 mph - -  
7:50 PM 24.8 °F - 10.4 °F 54% 29.71 in 6.2 mi South 1.2 mph - N/A   Clear
8:50 PM 23.0 °F 17.0 °F 8.6 °F 54% 29.71 in 6.2 mi SSW 4.6 mph - N/A   Clear
9:50 PM 23.0 °F 18.4 °F 10.4 °F 59% 29.74 in 6.2 mi Variable 3.5 mph - N/A   Clear
10:00 PM 23 °F - 8 °F 39% 29.77 in 22 mi SE 2.3 mph - -  
10:50 PM 24.8 °F 20.5 °F 10.4 °F 54% 29.74 in 6.2 mi SW 3.5 mph - N/A   Unknown
11:20 PM 24.8 °F - 10.4 °F 54% 29.74 in 6.2 mi South 2.3 mph - N/A   Unknown
11:50 PM 23.0 °F 18.4 °F 12.2 °F 63% 29.77 in 6.2 mi South 3.5 mph - N/A   Unknown